Location: New Plymouth
(39.0670°S, 174.0830°E)
Time: 12:35:21
(UTC+12:00)

N. Korean satellite - Visible Passes

Search period start: 18 June 2019 00:00
Search period end: 28 June 2019 00:00
Orbit: 455 x 510 km, 97.2° (Epoch: 17 June)

Date Brightness Start Highest point End Pass type
(mag) Time Alt. Az. Time Alt. Az. Time Alt. Az.
18 Jun 8.0 05:15:18 10° NE 05:18:29 38° E 05:18:29 38° E visible
18 Jun 8.6 06:50:49 10° WNW 06:52:18 12° W 06:52:48 12° W visible
18 Jun 6.7 18:16:03 10° SSE 18:19:49 61° E 18:23:29 10° N visible
19 Jun 9.3 04:51:08 10° ENE 04:53:11 19° E 04:53:11 19° E visible
19 Jun 7.7 06:24:03 10° NNW 06:27:05 24° W 06:27:29 24° W visible
19 Jun 7.6 17:51:24 10° SE 17:54:42 28° E 17:57:56 10° NNE visible
19 Jun 9.4 19:25:18 10° SSW 19:27:52 18° WSW 19:30:25 10° WNW visible
20 Jun 6.7 05:58:22 10° N 06:01:57 52° W 06:02:10 51° W visible
20 Jun 8.3 18:59:34 10° S 19:03:01 34° WSW 19:06:23 10° NW visible
21 Jun 6.8 05:33:15 10° NNE 05:36:51 70° E 05:36:51 70° E visible
21 Jun 6.8 18:34:17 10° S 18:38:04 74° WSW 18:41:45 10° NNW visible
22 Jun 8.4 05:08:38 10° NE 05:11:33 31° E 05:11:33 31° E visible
22 Jun 8.4 06:43:19 10° NW 06:45:28 15° W 06:45:51 15° W visible
22 Jun 6.9 18:09:21 10° SSE 18:13:01 49° E 18:16:36 10° N visible
22 Jun 9.8 19:44:59 10° SW 19:45:56 11° WSW 19:46:51 10° W visible
23 Jun 9.6 04:44:40 10° ENE 04:46:14 16° E 04:46:14 16° E visible
23 Jun 7.5 06:16:59 10° NNW 06:20:15 30° W 06:20:33 29° W visible
23 Jun 7.9 17:44:49 10° SE 17:47:53 23° E 17:50:51 10° NNE visible
23 Jun 9.1 19:18:18 10° SSW 19:21:08 21° WSW 19:23:56 10° WNW visible
24 Jun 6.5 05:51:28 10° N 05:55:08 65° W 05:55:14 64° W visible
24 Jun 7.9 18:52:42 10° S 18:56:15 41° WSW 18:59:43 10° NW visible
25 Jun 7.3 05:26:29 10° NNE 05:29:55 56° E 05:29:55 56° E visible
25 Jun 6.6 18:27:30 10° SSE 18:31:16 90° E 18:34:56 10° NNW visible
26 Jun 8.8 05:02:00 10° NE 05:04:36 26° E 05:04:36 26° E visible
26 Jun 8.2 06:36:00 10° NW 06:38:36 18° W 06:38:55 18° W visible
26 Jun 7.1 18:02:38 10° SSE 18:06:11 40° E 18:09:38 10° N visible
26 Jun 9.7 19:37:31 10° SW 19:39:11 13° WSW 19:40:50 10° W visible
27 Jun 9.8 04:38:17 10° E 04:39:17 13° E 04:39:17 13° E visible
27 Jun 7.2 06:09:57 10° NNW 06:13:25 36° W 06:13:36 36° W visible
27 Jun 8.1 17:38:16 10° SE 17:41:00 19° E 17:43:41 10° NE visible
27 Jun 8.9 19:11:18 10° SSW 19:14:22 24° WSW 19:17:21 10° NW visible
